Location: Street
(51.1247°N, 2.7429°W)
Time: 04:32:00
(UTC+00:00)

ITAMSAT 1 - Visible Passes

Search period start: 23 March 2023 00:00
Search period end: 02 April 2023 01:00
Orbit: 784 x 795 km, 98.8° (Epoch: 21 March)

Date Brightness Start Highest point End Pass type
(mag) Time Alt. Az. Time Alt. Az. Time Alt. Az.
23 Mar 7.9 19:45:58 10° S 19:51:10 74° WSW 19:56:25 10° NNW visible
23 Mar 10.5 21:29:31 10° WSW 21:31:32 12° W 21:33:34 10° WNW visible
24 Mar 7.7 19:16:22 10° SSE 19:21:31 67° ENE 19:26:43 10° N visible
24 Mar 10.0 20:57:32 10° SW 21:01:27 21° W 21:05:24 10° NW visible
25 Mar 9.1 20:26:44 10° SSW 20:31:30 36° W 20:36:19 10° NNW visible
26 Mar 8.2 20:56:32 10° S 21:01:41 62° WSW 21:06:54 10° NNW visible
27 Mar 7.6 20:26:48 10° SSE 20:32:00 80° ENE 20:37:16 10° NNW visible
27 Mar 10.2 22:08:37 10° SW 22:12:05 18° W 22:15:35 10° NW visible
28 Mar 9.5 21:37:32 10° SSW 21:42:05 30° W 21:46:41 10° NNW visible
29 Mar 8.5 21:07:10 10° S 21:12:14 51° W 21:17:21 10° NNW visible
30 Mar 7.7 20:37:16 10° SSE 20:42:30 87° WSW 20:47:46 10° NNW visible
30 Mar 10.3 22:19:51 10° WSW 22:22:44 15° W 22:25:37 10° NW visible
31 Mar 7.8 20:07:49 10° SE 20:12:53 57° ENE 20:18:02 10° N visible
31 Mar 9.7 21:48:24 10° SSW 21:52:40 25° W 21:57:00 10° NW visible
01 Apr 8.9 21:17:50 10° S 21:22:46 43° W 21:27:46 10° NNW visible
